This demonstration page uses our WeatherBlox Daily Observations layout. Learn more.

Left ArrowRight Arrow

39.01783, -85.05884

Hourly Observations for August 2, 2017

Temp ( °F °C ) Dew Point ( °F °C ) Humidity (%) Winds ( mph kmh ) Pressure ( in mb ) Visibility ( mi km ) Precip ( " mm )
12:52 am 00:52 Mostly Cloudy 71 21.7 67 19.4 87 87 WSW 6 9 30.06 1018 10 16 0.00 0.00
1:52 am 01:52 Mostly Cloudy 71 21.7 66 18.9 84 84 WSW 5 7 30.05 1018 10 16 0.00 0.00
2:52 am 02:52 Mostly Cloudy 71 21.7 66 18.9 84 84 Calm 30.04 1017 10 16 0.00 0.00
3:52 am 03:52 Cloudy 67 19.4 66 18.9 97 97 WSW 3 6 30.04 1017 9 14 0.00 0.00
4:52 am 04:52 Mostly Cloudy 68 20 66 18.9 93 93 SW 6 9 30.04 1017 10 16 0.00 0.00
5:52 am 05:52 Mostly Cloudy 66 18.9 65 18.3 96 96 Calm 30.05 1018 9 14 0.00 0.00
6:52 am 06:52 Mostly Cloudy 65 18.3 65 18.3 100 100 Calm 30.05 1018 7 11 0.00 0.00
7:52 am 07:52 Cloudy 67 19.4 66 18.9 97 97 SSE 3 6 30.06 1018 10 16 0.00 0.00
8:52 am 08:52 Cloudy 69 20.6 67 19.4 93 93 SSW 3 6 30.07 1018 9 14 0.00 0.00
9:52 am 09:52 Cloudy 71 21.7 67 19.4 87 87 S 5 7 30.07 1018 8 13 0.00 0.00
10:52 am 10:52 Mostly Cloudy 73 22.8 67 19.4 81 81 Calm 30.07 1018 10 16 0.00 0.00
11:52 am 11:52 Mostly Cloudy 75 23.9 65 18.3 71 71 WSW 9 15 30.08 1019 10 16 0.00 0.00
12:52 pm 12:52 Mostly Cloudy 75 23.9 69 20.6 82 82 W 7 11 30.07 1018 10 16 0.01 0.25
1:52 pm 13:52 Mostly Cloudy 77 25 71 21.7 82 82 WSW 3 6 30.05 1018 10 16 0.01 0.25
2:52 pm 14:52 Partly Cloudy 82 27.8 70 21.1 67 67 WSW 7 11 30.03 1017 10 16 0.00 0.00
3:52 pm 15:52 Partly Cloudy 82 27.8 70 21.1 67 67 W 7 11 30.01 1016 10 16 0.00 0.00
4:52 pm 16:52 Mostly Cloudy with Light Rain 75 23.9 68 20 79 79 SSW 5 7 30.02 1017 5 8 0.00 0.03
5:52 pm 17:52 Mostly Cloudy 80 26.7 71 21.7 74 74 S 6 9 30.01 1016 10 16 0.00 0.03
6:52 pm 18:52 Partly Cloudy 79 26.1 68 20 69 69 S 8 13 30.01 1016 10 16 0.00 0.00
7:52 pm 19:52 Mostly Cloudy with Thunderstorms 75 23.9 69 20.6 82 82 S 10 17 30.02 1017 10 16 0.00 0.00
8:28 pm 20:28 Mostly Cloudy with Thunderstorms 72 22.2 67 19.4 84 84 WNW 14 22 30.06 1018 10 16 0.00 0.03
8:43 pm 20:43 Mostly Cloudy with Thunderstorms 70 21.1 69 20.6 97 97 NW 7 11 30.03 1017 6 10 0.00 0.03
8:52 pm 20:52 Mostly Cloudy with Thunderstorms 69 20.6 69 20.6 100 100 NNE 9 15 30.04 1017 6 10 0.02 0.51
9:16 pm 21:16 Mostly Cloudy with Light Rain 69 20.6 68 20 96 96 ESE 3 6 30.03 1017 10 16 0.00 0.03
9:52 pm 21:52 Mostly Cloudy 69 20.6 69 20.6 100 100 W 5 7 30.04 1017 9 14 0.01 0.25
10:52 pm 22:52 Cloudy 68 20 68 20 100 100 S 6 9 30.05 1018 7 11 0.00 0.00
11:52 pm 23:52 Mostly Cloudy 69 20.6 69 20.6 100 100 S 7 11 30.05 1018 10 16 0.00 0.00

Powered by AerisWeather